Simultaneous Nadir Overpasses (SNOs) Predictions

Prediction of SNOs between GOES-15 and METOP-A Satellite Orbit:

Table of predicted SNOs for the next 14.0 days since TLE Epoch: 11/27/2012
Index Date Time (GOES-15) GOES-15 Lat,Lon METOP-A Lat,Lon Distance(km) Time Diff (sec)
1 11/28/2012 06:33:12 0.20,-135.10 0.10,-135.53 48.60 80
2 11/30/2012 18:28:45 -0.19,-135.21 -0.20,-135.10 12.56 80
3 12/03/2012 06:27:05 0.18,-135.25 0.30,-134.71 61.65 80
4 12/04/2012 18:48:37 -0.15,-135.32 0.75,-139.27 450.46 80
5 12/05/2012 18:25:18 -0.16,-135.34 -0.43,-134.29 121.06 80
6 12/07/2012 06:46:57 0.14,-135.35 -0.62,-138.88 401.90 80
7 12/08/2012 06:23:38 0.16,-135.37 0.50,-133.89 168.77 80
8 12/09/2012 18:45:09 -0.14,-135.42 0.53,-138.45 344.98 80
9 12/10/2012 18:21:50 -0.15,-135.44 -0.59,-133.46 225.54 80




NCC Satellite Simultaneous Nadir Overpasses (SNOs) Prediction Service
